This demonstration page uses our WeatherBlox Daily Observations layout. Learn more.

Left ArrowRight Arrow

44.8408, -93.29828

Hourly Observations for March 24, 2022

Temp ( °F °C ) Dew Point ( °F °C ) Humidity (%) Winds ( mph kmh ) Pressure ( in mb ) Visibility ( mi km ) Precip ( " mm )
12:53 am 00:53 Cloudy 34 1.1 28 -2.2 79 79 N 20 31 29.78 1008 10 16 0.00 0.00
1:53 am 01:53 Cloudy 34 1.1 28 -2.2 79 79 N 13 20 29.78 1008 10 16 0.00 0.00
2:53 am 02:53 Cloudy 34 1.1 28 -2.2 79 79 N 16 26 29.77 1008 10 16 0.00 0.00
3:53 am 03:53 Cloudy 34 1.1 28 -2.2 79 79 N 14 22 29.78 1009 10 16 0.00 0.00
4:53 am 04:53 Cloudy 34 1.1 28 -2.2 79 79 N 10 17 29.78 1009 10 16 0.00 0.00
5:53 am 05:53 Cloudy 33 0.6 28 -2.2 82 82 N 13 20 29.78 1009 10 16 0.00 0.00
6:53 am 06:53 Cloudy 33 0.6 28 -2.2 82 82 N 13 20 29.79 1009 10 16 0.00 0.00
7:06 am 07:06 Cloudy 33 0.6 28 -2.2 82 82 N 10 17 29.81 1010 10 16 0.00 0.00
7:18 am 07:18 Cloudy 33 0.6 28 -2.2 82 82 NNE 13 20 29.82 1010 10 16 0.00 0.00
7:53 am 07:53 Cloudy 33 0.6 28 -2.2 82 82 NNE 12 19 29.81 1010 10 16 0.00 0.00
8:53 am 08:53 Cloudy 34 1.1 28 -2.2 79 79 N 14 22 29.82 1010 10 16 0.00 0.00
9:53 am 09:53 Cloudy 35 1.7 28 -2.2 76 76 NNE 13 20 29.83 1010 10 16 0.00 0.00
9:58 am 09:58 Cloudy 36 2.2 28 -2.2 73 73 NNE 14 22 29.84 1010 10 16 0.00 0.00
10:53 am 10:53 Cloudy 37 2.8 28 -2.2 70 70 NNE 13 20 29.82 1010 10 16 0.00 0.00
11:53 am 11:53 Cloudy 39 3.9 28 -2.2 65 65 NNE 13 20 29.83 1010 10 16 0.00 0.00
12:53 pm 12:53 Cloudy 40 4.4 28 -2.2 63 63 N 7 11 29.82 1010 10 16 0.00 0.00
1:06 pm 13:06 Cloudy 40 4.4 29 -1.7 65 65 N 8 13 29.82 1010 10 16 0.00 0.00
1:53 pm 13:53 Cloudy 41 5 29 -1.7 62 62 NNW 7 11 29.81 1009 10 16 0.00 0.00
2:53 pm 14:53 Cloudy 41 5 29 -1.7 62 62 N 7 11 29.80 1009 10 16 0.00 0.00
3:53 pm 15:53 Cloudy 43 6.1 30 -1.1 60 60 WNW 9 15 29.79 1009 10 16 0.00 0.00
4:07 pm 16:07 Cloudy 43 6.1 30 -1.1 60 60 NW 12 19 29.79 1009 10 16 0.00 0.00
4:36 pm 16:36 Cloudy 44 6.7 30 -1.1 58 58 WNW 5 7 29.79 1009 10 16 0.00 0.00
4:53 pm 16:53 Mostly Cloudy 44 6.7 30 -1.1 58 58 WNW 8 13 29.78 1009 10 16 0.00 0.00
5:53 pm 17:53 Mostly Cloudy 44 6.7 31 -0.6 60 60 W 8 13 29.78 1009 10 16 0.00 0.00
6:53 pm 18:53 Partly Cloudy 43 6.1 31 -0.6 63 63 WNW 8 13 29.79 1009 10 16 0.00 0.00
7:53 pm 19:53 Partly Cloudy 42 5.6 31 -0.6 65 65 W 6 9 29.79 1009 10 16 0.00 0.00
8:53 pm 20:53 Partly Cloudy 40 4.4 31 -0.6 70 70 W 9 15 29.81 1009 10 16 0.00 0.00
9:53 pm 21:53 Partly Cloudy 40 4.4 32 0 73 73 W 7 11 29.80 1009 10 16 0.00 0.00
10:06 pm 22:06 Mostly Cloudy 40 4.4 32 0 73 73 W 7 11 29.81 1009 10 16 0.00 0.00
10:53 pm 22:53 Partly Cloudy 39 3.9 32 0 76 76 WSW 6 9 29.79 1009 10 16 0.00 0.00
11:53 pm 23:53 Cloudy 39 3.9 32 0 76 76 WSW 5 7 29.78 1009 10 16 0.00 0.00

Powered by AerisWeather